Location: New Plymouth
(39.0670°S, 174.0830°E)
Time: 01:02:39
(UTC+12:00)

Cosmos 2322 Rocket - Pass Details

Date: 24 January 2019
Orbit: 832 x 851 km, 71.0° (Epoch: 19 April)

Event Time Altitude Azimuth Distance (km) Brightness Sun altitude
Rises 21:11:22 0° 6° (N) 3,382 5.0 -5.1°
Reaches altitude 10° 21:14:01 10° 15° (NNE) 2,459 4.2 -5.6°
Maximum altitude 21:18:59 32° 77° (ENE) 1,415 2.9 -6.4°
Drops below altitude 10° 21:24:00 10° 138° (SE) 2,498 4.6 -7.2°
Sets 21:26:42 0° 147° (SSE) 3,444 5.4 -7.7°
